Simultaneous Nadir Overpasses (SNOs) Predictions

Prediction of SNOs between AQUA and METOP-C Satellite Orbit:

Table of predicted SNOs for the next 14.0 days since TLE Epoch: 8/14/2020
Index Date (AQUA) Time (AQUA) Lat,Lon (AQUA) SZA (AQUA ) Date (METOP-C) Time (METOP-C) Lat,Lon (METOP-C) SZA (METOP-C ) Distance(km) Time Diff (sec)
1 08/16/2020 02:50:45 -73.71, -48.18 119.88 08/16/2020 02:49:33 -73.70, -48.18 119.88 1.25 72
2 08/16/2020 03:40:14 73.76, 119.34 60.19 08/16/2020 03:40:12 73.78, 119.33 60.21 1.41 2
3 08/16/2020 04:29:40 -73.81, -73.11 119.75 08/16/2020 04:30:52 -73.83, -73.22 119.74 3.73 72
4 08/18/2020 22:25:00 -73.72, 18.24 118.97 08/18/2020 22:23:53 -73.71, 18.24 118.97 1.63 67
5 08/18/2020 23:14:29 73.78,-174.25 61.11 08/18/2020 23:14:32 73.77,-174.26 61.11 0.57 3
6 08/19/2020 00:03:57 -73.92, -6.93 118.73 08/19/2020 00:05:10 -73.93, -6.56 118.74 11.24 73
7 08/21/2020 17:59:16 -73.73, 84.65 118.03 08/21/2020 17:58:14 -73.71, 84.66 118.04 2.54 62
8 08/21/2020 18:48:45 73.79,-107.85 62.05 08/21/2020 18:48:53 73.77,-107.86 62.03 2.41 8
9 08/21/2020 19:38:17 -74.14, 59.02 117.57 08/21/2020 19:39:27 -74.13, 60.34 117.63 40.32 70
10 08/24/2020 13:33:31 -73.70, 151.17 117.12 08/24/2020 13:32:35 -73.71, 151.08 117.09 3.35 56
11 08/24/2020 14:23:00 73.76, -41.34 62.97 08/24/2020 14:23:14 73.77, -41.46 62.98 3.56 14
12 08/24/2020 15:12:36 -74.31, 125.06 116.43 08/24/2020 15:13:44 -74.33, 127.25 116.49 66.12 68
13 08/27/2020 09:07:47 -73.72,-142.44 116.12 08/27/2020 09:06:56 -73.71,-142.51 116.11 2.11 51
14 08/27/2020 09:57:16 73.79, 25.04 63.97 08/27/2020 09:57:34 73.81, 25.06 63.99 2.87 18
